Regional Weather Roundup
Issued by NWS Wilmington, NC

Home | Current Version | Previous Version | Text Only | Print | Product List | Glossary On
Versions: 1 2 3 4 5 6 7 8 9 10 11 12 13 14 15 16 17 18 19 20 21 22 23 24 25 26 27 28 29 30 31 32 33 34 35 36 37 38 39 40 41 42 43 44 45 46 47 48 49 50
621
ASUS42 KILM 071613
RWRILM
RWRILM
REGIONAL HOURLY WEATHER ROUNDUP
NATIONAL WEATHER SERVICE WILMINGTON NC
1100 AM EST SUN FEB 07 2016

NOTE: "FAIR" INDICATES FEW OR NO CLOUDS BELOW 12,000 FEET WITH NO
SIGNIFICANT WEATHER AND/OR OBSTRUCTIONS TO VISIBILITY.

...............WFO WILMINGTON COUNTY WARNING AREA...............

......COASTAL NC AND SC COUNTIES......

CITY           SKY/WX    TMP DP  RH WIND       PRES   REMARKS
WILMINGTON     HVY RAIN  36  32  85 N20G35    29.87F FOG     WCI  25
N MYRTLE BEACH RAIN      37  34  89 N20G25    29.86F WCI  27
MYRTLE BEACH   NOT AVBL

......INLAND NC AND SC COUNTIES.......

CITY           SKY/WX    TMP DP  RH WIND       PRES   REMARKS
LUMBERTON      RAIN      37  33  85 N21G29    29.98S FOG     WCI  26
ELIZABETHTOWN  RAIN      35  33  94 N8G18     29.96F WCI  28
WHITEVILLE     RAIN      35  33  92 N12G22    29.93S WCI  27
FLORENCE       CLOUDY    40  27  59 N22G29    30.00R WCI  30
DARLINGTON     CLOUDY    43  25  49 N12       30.03R
KINGSTREE      CLOUDY    37  32  81 N6        30.01R WCI  33
HARTSVILLE     CLOUDY    41  23  48 N13       30.01S
BENNETTSVILLE  CLOUDY    45  28  53 N9        30.02S
CONWAY         RAIN      36  34  93 N12G17    29.93F WCI  27
GEORGETOWN     LGT RAIN  37  36  93 NW10G20   29.94S WCI  30
MARION         LGT RAIN  36  34  93 N14G23    29.99R WCI  27

....................REST OF NORTH CAROLINA......................

.........EASTERN NC.........

CITY           SKY/WX    TMP DP  RH WIND       PRES   REMARKS
CAPE HATTERAS  RAIN      47  45  93 NE20G32   29.86F
JACKSONVILLE   CLOUDY    34  27  75 N16G24    29.92F WCI  23
MOREHEAD CITY  RAIN      41  39  93 N26G39    29.83F FOG
KENANSVILLE    LGT SNOW  34  32  94 N16G23    30.00S WCI  23
NEW BERN       LGT RAIN  37  33  85 N13G24    29.95F WCI  29
ELIZABETH CITY CLOUDY    43  32  65 N16       30.05R

.........CENTRAL NC.........

CITY           SKY/WX    TMP DP  RH WIND       PRES   REMARKS
RALEIGH DURHAM CLOUDY    39  23  52 VRB6      30.04F WCI  35
ROCKY MOUNT    LGT RAIN  34  31  88 N12       30.04F FOG     WCI  25
ROANOKE RAPIDS NOT AVBL
FAYETTEVILLE   LGT RAIN  35  31  85 N16G26    30.00F WCI  25
HOFFMAN        PTSUNNY   41  23  49 N14       30.01S

.........WESTERN NC.........

CITY           SKY/WX    TMP DP  RH WIND       PRES   REMARKS
CHARLOTTE      PTSUNNY   46  20  35 N13       30.08S
GREENSBORO     PTSUNNY   41  19  41 N9        30.06F
HICKORY        NOT AVBL
BOONE          NOT AVBL
ASHEVILLE      NOT AVBL

.....................REST OF SOUTH CAROLINA.....................

.........EASTERN SC.........

CITY           SKY/WX    TMP DP  RH WIND       PRES   REMARKS
CHARLESTON     LGT RAIN  40  35  83 N22G28    29.96S WCI  30
BEAUFORT MCAS  CLOUDY    43  34  70 NW14G21   30.00S
HILTON HEAD    CLOUDY    43  36  75 N12G25    30.01R

.........CENTRAL SC.........

CITY           SKY/WX    TMP DP  RH WIND       PRES   REMARKS
COLUMBIA       CLOUDY    45  22  40 NW8       30.06S
ORANGEBURG     CLOUDY    45  25  45 N10       30.03S
SUMTER SHAW    CLOUDY    43  24  46 N15       29.99F

.........WESTERN SC.........

CITY           SKY/WX    TMP DP  RH WIND       PRES   REMARKS
GREENVILLE     NOT AVBL
ROCK HILL      CLOUDY    45  25  45 N10       30.07S
ANDERSON       SUNNY     50  24  36 N9        30.11F
CLEMSON        NOT AVBL
GREENWOOD      SUNNY     50  23  34 N10       30.12R


...................COASTAL AND OFFSHORE REPORTS..................

................LOCAL PIERS AND NC RESERVE................


STATION/POSITION TIME  SKY/WX   TEMP    WIND        PRES    VSBY
                                AIR SEA DIR/SP/G
                 (UTC)          (F)     (DEG/KT/KT) (MB)    (MI)
JOHNY MRCER PIER 1500            36 53   10/ 27/ 35 1010.1F
NC RESRV MASNBRO NOT AVBL
OCEAN CREST PIER NOT AVBL
SPRINGMAID  PIER 1500            38 52  340/ 12/ 18 1012.0S


................COASTAL AND OFFSHORE BUOYS................


STATION/POSITION TIME  SKY/WX   TEMP    WIND        PRES    VSBY
                                AIR SEA DIR/SP/G
                 (UTC)          (F)     (DEG/KT/KT) (MB)    (MI)
DIMNDSHOAL 41025 1550            56 70   30/ 35/ 43 1008.9F
WVE H/P(F/S)= 10/ 7 SWL H/P/D(F/S/D)=  3/ 90/11

CAPE LOOKOUT     NOT AVBL
ONSLOW BAY 41036 NOT AVBL
ONSLOW BAY 41064 1508            42 63              1006.5F
ONSLOW BAY 41159 1525               64                N/A
WVE H/P(F/S)= 11/ 6 SWL H/P/D(F/S/D)=  2/110/11

5SE WRITBC 41038 1508            40 53   30/ 33/ 41 1010.3F
MASNBO INL 41110 1506               53                N/A
WVE H/P(F/S)=  7/ 7 SWL H/P/D(F/S/D)=  2/120/11

WILM HARBR 41108 1526               53                N/A
WVE H/P(F/S)=  6/ 5 SWL H/P/D(F/S/D)=  2/170/11

27SE WRITB 41037 NOT AVBL
FRYING PAN 41013 1500            50 67  360/ 35/ 45 1006.5F
SUNST NRSH 41024 NOT AVBL
CAPRS NRSH 41029 1508            42     350/ 17/ 23 1012.7R
EDISTO     41004 1550            48 66  350/ 23/ 27 1011.2R
WVE H/P(F/S)= 12/ 9 SWL H/P/D(F/S/D)=  7/ 9



..........OFFSHORE BUOYS BEYOND 100 NM OFFSHORE...........
.....IN A TRIANGLE---HAT TO BERMUDA TO BAHAMAS TO HAT.....


STATION/POSITION TIME  SKY/WX   TEMP    WIND        PRES    VSBY
                                AIR SEA DIR/SP/G
                 (UTC)          (F)     (DEG/KT/KT) (MB)    (MI)
150E HAT   41001 1500            61 71   70/ 29/ 39 1011.6F
W BERMUDA  41048 1550            71 70  150/ 23/ 29 1009.3F
WVE H/P(F/S)= 10/ 7

ATLANTIC S 41049 1550            75 74  170/ 16/ 19 1018.6F
WVE H/P(F/S)=  9/ 9 SWL H/P/D(F/S/D)=  8/ 80/ 9

E BAHAMAS  41046 1550            79 79  170/ 19/ 23 1015.9F
WVE H/P(F/S)=  9/10 SWL H/P/D(F/S/D)=  8/ 70/10

NE BAHAMAS 41047 1550            76 76  190/ 23/ 27 1010.3F
WVE H/P(F/S)=  9/11 SWL H/P/D(F/S/D)=  5/ 40/11

120E CANVRL41010 1520            67 74              1007.5R

END




USA.gov is the U.S. government's official web portal to all federal, state and local government web resources and services.